�N����,����,�~����,�C��,���x,�C��,����,���ϕ���,�ő�u�ԕ���,�ő厞����,���˗�,�I�_���x,�n�����x,�ő啗���N��,DTYPE
"20/10/16","00:10",0.0,12.5,86.5,1015.4,287.2,1.0,1.3,273.2,0.00,10.4,17.6,"00:04:50",1
"20/10/16","00:20",0.0,12.5,86.3,1015.6,286.2,0.7,1.6,327.7,0.00,10.3,17.9,"00:12:20",1
"20/10/16","00:30",0.0,12.9,85.9,1015.6,269.4,1.2,3.7,219.7,0.00,10.6,17.8,"00:25:06",1
"20/10/16","00:40",0.0,13.0,85.1,1015.4,299.4,0.8,1.9,320.5,0.00,10.6,17.9,"00:38:56",1
"20/10/16","00:50",0.0,13.0,84.0,1015.6,279.0,1.0,2.2,292.9,0.00,10.4,17.8,"00:49:58",1
"20/10/16","01:00",0.0,14.2,80.5,1015.9,297.3,1.8,4.1,336.4,0.00,10.9,17.9,"00:57:28",1
"20/10/16","01:10",0.0,15.3,74.2,1016.1,320.7,2.5,5.0,350.9,0.00,10.8,17.7,"01:02:58",1
"20/10/16","01:20",0.0,15.7,69.5,1015.9,319.6,2.3,4.2,310.9,0.00,10.2,17.8,"01:15:52",1
"20/10/16","01:30",0.0,15.7,68.4,1015.9,309.6,1.5,3.1,320.2,0.00,9.9,17.9,"01:27:52",1
"20/10/16","01:40",0.0,15.7,68.5,1016.4,310.2,1.7,3.2,309.3,0.00,10.0,17.9,"01:35:20",1
"20/10/16","01:50",0.0,16.0,68.2,1015.9,320.8,3.0,7.2,324.1,0.00,10.2,17.9,"01:48:10",1
"20/10/16","02:00",0.0,16.1,67.6,1015.9,326.9,2.6,4.8,341.0,0.00,10.2,17.9,"01:51:36",1
"20/10/16","02:10",0.0,16.0,67.7,1016.1,311.2,1.7,4.8,334.0,0.00,10.1,18.0,"02:02:32",1
"20/10/16","02:20",0.0,15.9,68.3,1015.9,319.5,1.6,3.9,327.9,0.00,10.1,17.8,"02:15:12",1
"20/10/16","02:30",0.0,16.0,68.9,1015.9,304.8,1.8,3.5,319.3,0.00,10.3,18.2,"02:22:40",1
"20/10/16","02:40",0.0,16.0,69.3,1015.6,315.6,1.7,4.3,341.2,0.00,10.4,17.9,"02:34:24",1
"20/10/16","02:50",0.0,15.9,69.6,1015.9,303.7,1.0,1.8,330.7,0.00,10.4,17.9,"02:46:32",1
"20/10/16","03:00",0.0,15.8,70.3,1016.1,299.2,1.0,2.0,338.9,0.00,10.4,17.7,"02:50:56",1
"20/10/16","03:10",0.0,15.7,71.2,1015.4,309.7,0.8,2.1,308.1,0.00,10.5,17.8,"03:07:12",1
"20/10/16","03:20",0.0,15.6,71.7,1015.6,324.6,1.2,2.4,347.8,0.00,10.6,17.8,"03:11:52",1
"20/10/16","03:30",0.0,15.9,71.3,1015.4,334.9,1.1,3.1,32.1,0.00,10.8,17.8,"03:26:16",1
"20/10/16","03:40",0.0,15.9,70.9,1015.2,337.7,1.3,2.7,338.3,0.00,10.7,18.1,"03:35:04",1
"20/10/16","03:50",0.0,15.9,71.1,1015.2,317.7,1.3,2.5,307.0,0.00,10.7,18.0,"03:43:04",1
"20/10/16","04:00",0.0,15.8,71.6,1015.6,333.1,1.1,2.5,338.9,0.00,10.7,17.7,"03:52:08",1
"20/10/16","04:10",0.0,15.5,72.2,1015.4,336.8,1.2,2.6,341.5,0.00,10.6,17.8,"04:00:32",1
"20/10/16","04:20",0.0,15.5,72.7,1015.4,288.6,1.0,2.2,339.1,0.00,10.7,17.8,"04:18:40",1
"20/10/16","04:30",0.0,15.5,73.5,1015.2,317.5,1.1,2.4,337.3,0.00,10.8,17.8,"04:27:52",1
"20/10/16","04:40",0.0,15.3,74.3,1015.6,300.0,1.2,1.9,322.1,0.00,10.8,17.8,"04:36:24",1
"20/10/16","04:50",0.0,14.9,75.3,1015.9,283.2,1.1,1.9,325.1,0.00,10.6,17.7,"04:44:56",1
"20/10/16","05:00",0.0,14.8,76.3,1015.6,268.6,1.0,2.5,323.8,0.00,10.7,17.8,"04:50:02",1
"20/10/16","05:10",0.0,14.6,77.7,1015.9,315.7,1.2,2.8,326.0,0.00,10.8,17.7,"05:03:36",1
"20/10/16","05:20",0.0,14.4,78.9,1015.4,310.4,1.1,1.6,326.8,0.00,10.8,17.7,"05:15:36",1
"20/10/16","05:30",0.0,14.2,79.9,1015.9,306.6,0.8,1.7,348.9,0.00,10.8,17.7,"05:21:12",1
"20/10/16","05:40",0.0,13.9,80.7,1015.6,296.2,1.1,1.7,321.3,0.00,10.7,17.7,"05:33:54",1
"20/10/16","05:50",0.0,13.7,81.6,1016.1,288.2,1.0,1.7,326.9,0.00,10.7,17.8,"05:49:54",1
"20/10/16","06:00",0.0,13.4,82.1,1015.9,310.0,1.1,1.7,328.9,0.00,10.5,17.7,"05:50:08",1
"20/10/16","06:10",0.0,13.3,83.0,1016.1,300.5,0.8,1.6,319.6,0.00,10.5,17.6,"06:03:36",1
"20/10/16","06:20",0.0,13.3,83.8,1015.9,297.7,0.5,1.2,320.3,0.00,10.7,17.6,"06:12:02",1
"20/10/16","06:30",0.0,13.3,84.6,1016.6,307.1,1.0,2.0,317.6,0.00,10.8,17.6,"06:27:36",1
"20/10/16","06:40",0.0,13.4,85.4,1016.8,305.4,0.6,1.6,317.2,0.01,11.0,17.3,"06:30:02",1
"20/10/16","06:50",0.0,13.9,86.1,1016.1,321.0,1.1,2.0,326.7,0.03,11.7,17.6,"06:48:58",1
"20/10/16","07:00",0.0,14.6,86.5,1016.4,304.4,0.7,1.4,317.6,0.03,12.4,17.7,"06:56:16",1
"20/10/16","07:10",0.0,15.1,86.5,1016.4,281.6,0.2,0.6,269.2,0.03,12.9,17.7,"07:01:52",1
"20/10/16","07:20",0.0,15.3,86.5,1016.4,326.9,0.8,1.6,325.3,0.03,13.1,17.8,"07:19:04",1
"20/10/16","07:30",0.0,15.2,86.2,1017.3,243.3,0.8,1.8,241.7,0.04,13.0,17.8,"07:26:40",1
"20/10/16","07:40",0.0,15.7,85.4,1017.1,298.6,0.5,1.6,305.9,0.05,13.3,17.9,"07:30:56",1
"20/10/16","07:50",0.0,16.1,84.9,1016.8,291.2,0.7,1.2,341.7,0.07,13.6,17.8,"07:45:36",1
"20/10/16","08:00",0.0,16.3,83.4,1016.8,283.0,0.8,1.3,239.0,0.08,13.5,17.9,"07:54:56",1
"20/10/16","08:10",0.0,16.9,82.2,1016.8,341.7,0.5,1.2,330.7,0.11,13.9,18.1,"08:05:12",1
"20/10/16","08:20",0.0,17.4,79.5,1017.3,115.0,0.5,1.2,115.9,0.15,13.9,18.2,"08:16:48",1
"20/10/16","08:30",0.0,17.6,77.2,1016.8,81.1,0.3,1.1,82.5,0.13,13.6,18.4,"08:28:16",1
"20/10/16","08:40",0.0,18.6,73.9,1016.8,108.4,0.6,2.2,82.8,0.28,13.9,18.6,"08:36:08",1
"20/10/16","08:50",0.0,18.8,70.4,1016.8,242.3,0.7,1.4,243.4,0.18,13.3,18.5,"08:40:24",1
"20/10/16","09:00",0.0,18.8,68.9,1017.1,267.1,0.8,1.6,236.7,0.18,13.0,18.7,"08:50:24",1
"20/10/16","09:10",0.0,18.7,67.3,1016.6,53.3,0.8,2.2,78.1,0.19,12.6,18.8,"09:09:52",1
"20/10/16","09:20",0.0,18.9,66.3,1016.6,333.9,1.2,2.6,41.8,0.22,12.5,18.8,"09:19:52",1
"20/10/16","09:30",0.0,19.2,64.7,1016.4,354.3,1.8,4.0,302.6,0.24,12.4,19.0,"09:27:04",1
"20/10/16","09:40",0.0,19.1,63.9,1016.6,359.9,2.0,6.0,352.1,0.24,12.2,19.0,"09:35:52",1
"20/10/16","09:50",0.0,19.5,64.5,1016.8,343.8,2.1,4.3,342.3,0.24,12.7,19.1,"09:40:24",1
"20/10/16","10:00",0.0,19.5,62.6,1017.1,357.3,1.8,4.7,348.2,0.27,12.2,19.2,"09:57:36",1
"20/10/16","10:10",0.0,19.5,63.1,1016.6,353.8,2.0,4.0,2.9,0.26,12.3,19.4,"10:05:08",1
"20/10/16","10:20",0.0,19.5,63.0,1016.6,335.2,2.7,6.0,350.0,0.34,12.3,19.3,"10:13:36",1
"20/10/16","10:30",0.0,20.1,60.8,1016.4,345.4,2.1,5.0,350.7,0.43,12.3,19.5,"10:29:44",1
"20/10/16","10:40",0.0,20.4,58.7,1015.6,344.0,2.0,4.1,340.9,0.46,12.1,20.0,"10:31:36",1
"20/10/16","10:50",0.0,20.9,57.3,1015.4,28.7,1.5,4.8,22.9,0.49,12.2,20.1,"10:45:28",1
"20/10/16","11:00",0.0,21.2,56.0,1015.2,9.4,1.5,3.7,51.8,0.48,12.1,20.3,"10:54:40",1
"20/10/16","11:10",0.0,21.8,54.1,1014.9,26.7,1.2,3.6,347.0,0.48,12.2,20.3,"11:08:48",1
"20/10/16","11:20",0.0,21.6,51.9,1014.9,16.8,2.0,4.2,2.4,0.49,11.3,20.7,"11:14:16",1
"20/10/16","11:30",0.0,22.2,52.3,1014.7,48.1,1.5,4.3,348.1,0.49,12.0,20.9,"11:21:20",1
"20/10/16","11:40",0.0,22.3,49.2,1014.5,39.3,1.5,3.2,27.3,0.50,11.2,21.0,"11:36:08",1
"20/10/16","11:50",0.0,22.2,49.3,1014.2,10.8,1.5,3.6,0.2,0.50,11.1,21.3,"11:43:20",1
"20/10/16","12:00",0.0,22.6,50.5,1013.5,314.0,1.3,4.5,349.7,0.51,11.9,21.3,"11:59:20",1
"20/10/16","12:10",0.0,22.6,49.4,1013.8,6.1,1.0,3.5,335.0,0.34,11.5,21.6,"12:03:04",1
"20/10/16","12:20",0.0,22.0,49.8,1014.2,318.5,1.5,5.0,344.1,0.23,11.1,21.6,"12:14:24",1
"20/10/16","12:30",0.0,21.5,51.6,1014.0,342.6,2.1,5.4,349.2,0.24,11.2,21.4,"12:23:44",1
"20/10/16","12:40",0.0,21.4,49.7,1013.8,354.0,2.2,5.2,345.0,0.26,10.5,21.5,"12:33:44",1
"20/10/16","12:50",0.0,21.3,50.8,1013.8,351.1,2.6,4.8,353.8,0.30,10.7,21.5,"12:42:24",1
"20/10/16","13:00",0.0,22.2,48.7,1013.5,354.2,2.3,5.9,338.7,0.53,10.9,21.5,"12:53:20",1
"20/10/16","13:10",0.0,22.2,48.8,1013.3,337.0,2.5,5.1,336.1,0.46,11.0,21.6,"13:08:56",1
"20/10/16","13:20",0.0,22.7,48.0,1013.0,332.9,2.0,5.9,352.9,0.46,11.2,21.8,"13:18:32",1
"20/10/16","13:30",0.0,22.1,47.3,1012.6,7.8,2.2,5.7,45.5,0.29,10.4,21.8,"13:24:16",1
"20/10/16","13:40",0.0,22.1,46.7,1012.3,0.6,1.7,3.5,345.5,0.25,10.2,21.9,"13:37:44",1
"20/10/16","13:50",0.0,22.0,46.2,1012.6,3.2,1.7,3.2,346.5,0.21,10.0,21.8,"13:49:44",1
"20/10/16","14:00",0.0,21.8,47.1,1012.6,342.0,2.1,4.8,337.5,0.19,10.1,21.8,"13:55:36",1
"20/10/16","14:10",0.0,21.7,48.5,1012.6,347.3,2.0,4.2,343.0,0.19,10.4,21.9,"14:06:16",1
"20/10/16","14:20",0.0,21.6,48.5,1012.6,348.2,2.1,4.0,356.1,0.22,10.3,21.7,"14:15:44",1
"20/10/16","14:30",0.0,21.7,48.4,1012.6,348.2,2.2,4.7,330.1,0.23,10.4,21.9,"14:29:04",1
"20/10/16","14:40",0.0,21.4,49.6,1012.6,347.7,2.5,4.9,336.0,0.21,10.5,21.6,"14:36:56",1
"20/10/16","14:50",0.0,21.1,50.2,1012.3,335.3,2.5,5.5,341.4,0.16,10.4,21.7,"14:45:28",1
"20/10/16","15:00",0.0,20.8,50.7,1012.3,340.7,2.5,6.0,350.5,0.14,10.3,21.4,"14:52:16",1
"20/10/16","15:10",0.0,20.4,50.8,1012.8,341.9,2.7,5.7,345.6,0.11,9.9,21.5,"15:08:08",1
"20/10/16","15:20",0.0,20.4,51.8,1012.8,340.8,2.5,4.4,347.6,0.11,10.2,21.2,"15:15:36",1
"20/10/16","15:30",0.0,20.2,51.0,1013.0,340.5,2.7,5.2,346.7,0.11,9.8,21.2,"15:23:28",1
"20/10/16","15:40",0.0,20.2,51.3,1012.8,344.1,2.8,5.7,331.1,0.11,9.9,21.1,"15:36:56",1
"20/10/16","15:50",0.0,20.0,52.6,1013.0,340.6,2.8,5.1,348.2,0.07,10.1,21.2,"15:42:00",1
"20/10/16","16:00",0.0,19.6,53.9,1012.8,335.7,3.0,7.5,336.0,0.02,10.1,20.9,"15:51:44",1
"20/10/16","16:10",0.0,19.4,55.4,1013.3,338.4,2.7,5.7,328.0,0.01,10.3,21.1,"16:01:20",1
"20/10/16","16:20",0.0,19.0,57.0,1013.5,336.9,2.7,6.0,334.2,0.01,10.3,20.8,"16:14:08",1
"20/10/16","16:30",0.0,18.7,57.8,1012.8,341.4,3.0,7.3,342.9,0.00,10.3,20.6,"16:27:36",1
"20/10/16","16:40",0.0,18.4,58.8,1012.6,339.0,2.5,5.6,342.1,0.00,10.2,20.5,"16:36:00",1
"20/10/16","16:50",0.0,18.2,59.9,1013.0,334.2,3.0,7.2,337.1,0.00,10.3,20.3,"16:44:24",1
"20/10/16","17:00",0.0,18.0,60.7,1013.3,334.8,2.8,5.1,347.2,0.00,10.3,20.5,"16:51:44",1
"20/10/16","17:10",0.0,17.9,61.4,1013.5,338.6,2.3,4.4,327.8,0.00,10.4,20.2,"17:08:48",1
"20/10/16","17:20",0.0,17.7,62.5,1013.5,337.4,2.0,4.1,331.9,0.00,10.5,20.3,"17:11:44",1
"20/10/16","17:30",0.0,17.6,63.2,1013.5,328.6,1.6,2.9,317.2,0.00,10.6,19.9,"17:26:48",1
"20/10/16","17:40",0.0,17.5,63.7,1014.0,328.7,2.2,5.0,331.3,0.00,10.6,20.1,"17:33:20",1
"20/10/16","17:50",0.0,17.5,64.4,1013.8,333.5,2.3,4.9,339.1,0.00,10.8,20.0,"17:41:12",1
"20/10/16","18:00",0.0,17.3,65.1,1013.8,318.5,1.5,4.8,307.1,0.00,10.7,19.9,"17:55:04",1
"20/10/16","18:10",0.0,17.2,65.8,1014.2,337.6,1.6,3.2,334.9,0.00,10.8,19.5,"18:02:16",1
"20/10/16","18:20",0.0,17.2,66.4,1014.2,351.0,1.5,4.2,328.7,0.00,10.9,19.7,"18:13:36",1
"20/10/16","18:30",0.0,17.1,66.9,1014.2,297.3,0.6,1.6,2.9,0.00,10.9,19.6,"18:20:48",1
"20/10/16","18:40",0.0,16.9,67.7,1014.5,317.6,0.6,1.6,350.5,0.00,10.9,19.7,"18:32:00",1
"20/10/16","18:50",0.0,17.0,68.1,1014.5,354.4,1.0,2.4,80.0,0.00,11.1,19.6,"18:47:52",1
"20/10/16","19:00",0.0,17.0,68.2,1014.5,0.7,1.2,2.4,315.2,0.00,11.1,19.6,"18:55:28",1
"20/10/16","19:10",0.0,17.0,68.4,1014.5,349.0,1.3,3.1,348.8,0.00,11.2,19.5,"19:03:20",1
"20/10/16","19:20",0.0,16.9,69.0,1014.5,335.7,1.5,3.2,345.0,0.00,11.2,19.6,"19:16:08",1
"20/10/16","19:30",0.0,16.9,69.2,1014.5,323.6,1.7,3.1,341.4,0.00,11.3,19.4,"19:21:44",1
"20/10/16","19:40",0.0,16.9,69.3,1014.5,306.0,1.3,3.2,325.4,0.00,11.3,19.4,"19:34:16",1
"20/10/16","19:50",0.0,16.9,69.5,1014.5,308.7,1.3,2.4,355.3,0.00,11.3,19.4,"19:46:16",1
"20/10/16","20:00",0.0,16.9,69.7,1014.7,285.3,1.0,3.2,232.4,0.00,11.4,19.2,"19:57:44",1
"20/10/16","20:10",0.0,16.8,69.9,1014.7,316.9,1.3,3.3,337.6,0.00,11.3,19.4,"20:03:28",1
"20/10/16","20:20",0.0,16.8,70.1,1014.7,333.0,1.6,3.3,301.7,0.00,11.4,19.2,"20:19:52",1
"20/10/16","20:30",0.0,17.0,70.0,1014.9,321.8,2.2,4.1,323.3,0.00,11.5,19.1,"20:27:12",1
"20/10/16","20:40",0.0,17.1,69.7,1014.9,317.5,2.3,4.8,346.0,0.00,11.6,19.2,"20:32:16",1
"20/10/16","20:50",0.0,17.0,69.8,1014.7,333.3,1.7,3.2,347.1,0.00,11.5,19.2,"20:48:56",1
"20/10/16","21:00",0.0,16.9,70.0,1014.7,312.6,1.2,2.7,344.9,0.00,11.4,19.0,"20:50:48",1
"20/10/16","21:10",0.0,16.7,70.2,1015.2,290.4,0.8,2.0,316.0,0.00,11.3,18.9,"21:03:04",1
"20/10/16","21:20",0.0,16.6,70.6,1014.7,322.5,0.8,1.6,339.3,0.00,11.3,19.2,"21:13:28",1
"20/10/16","21:30",0.0,16.5,71.1,1014.5,316.7,1.0,1.9,339.9,0.00,11.3,19.0,"21:22:32",1
"20/10/16","21:40",0.0,16.2,71.8,1014.5,298.9,0.8,1.8,328.2,0.00,11.2,19.1,"21:33:36",1
"20/10/16","21:50",0.0,16.1,72.8,1014.7,305.8,1.0,1.6,314.9,0.00,11.3,18.8,"21:42:24",1
"20/10/16","22:00",0.0,16.2,73.8,1014.5,331.3,1.1,1.8,342.4,0.00,11.6,18.9,"21:52:16",1
"20/10/16","22:10",0.0,16.0,75.1,1015.2,302.6,1.1,1.9,321.2,0.00,11.6,19.1,"22:09:28",1
"20/10/16","22:20",0.0,15.4,76.2,1014.5,297.5,0.8,1.3,319.5,0.00,11.3,18.8,"22:10:08",1
"20/10/16","22:30",0.0,15.4,78.7,1014.5,305.9,1.2,2.2,336.1,0.00,11.8,19.0,"22:23:04",1
"20/10/16","22:40",0.0,15.2,80.7,1014.9,307.1,1.2,1.7,323.3,0.00,11.9,19.0,"22:31:44",1
"20/10/16","22:50",0.0,15.2,82.2,1014.7,305.9,1.3,2.5,329.8,0.00,12.2,18.9,"22:48:32",1
"20/10/16","23:00",0.0,15.2,83.4,1015.2,326.0,2.1,3.4,328.5,0.00,12.4,18.9,"22:57:28",1
"20/10/16","23:10",0.0,15.2,83.5,1014.7,326.0,2.5,4.2,339.8,0.00,12.5,18.7,"23:06:16",1
"20/10/16","23:20",0.0,15.4,83.2,1014.9,322.7,2.1,3.3,341.6,0.00,12.6,18.7,"23:19:20",1
"20/10/16","23:30",0.0,15.5,83.0,1014.7,326.7,1.7,2.7,330.4,0.00,12.7,18.8,"23:24:44",1
"20/10/16","23:40",0.0,15.4,82.7,1014.9,331.7,2.2,3.9,341.6,0.00,12.5,18.7,"23:39:32",1
"20/10/16","23:50",0.0,15.6,82.2,1015.2,320.2,1.7,3.3,327.3,0.00,12.6,18.7,"23:40:16",1
"20/10/16","24:00",0.0,15.6,81.9,1014.9,333.5,1.7,3.6,340.2,0.00,12.6,18.7,"23:56:00",1
